Regional Weather Roundup
Issued by NWS

Home | Current Version | Previous Version | Graphics & Text | Print | Product List | Glossary On
Versions: 1 2 3 4 5 6 7 8 9 10 11 12 13 14 15 16 17 18 19 20 21 22 23 24 25 26 27 28 29 30 31 32 33 34 35 36 37 38 39 40 41 42 43 44 45 46 47 48 49 50
000
ASUS43 KMPX 211501
RWRMN
WEATHER ROUNDUP FOR MINNESOTA
NATIONAL WEATHER SERVICE TWIN CITIES/CHANHASSEN MN
1000 AM CDT MON AUG 21 2017


NOTE: "FAIR" INDICATES FEW OR NO CLOUDS BELOW 12,000 FEET WITH NO
SIGNIFICANT WEATHER AND/OR OBSTRUCTIONS TO VISIBILITY. N/A MEANS
CURRENT SKY AND/OR WEATHER CONDITIONS ARE NOT AVAILABLE.

MNZ060>063-068>070-211600-
   Twin Cities Metro

CITY           SKY/WX    TMP DP  RH WIND       PRES   REMARKS
TWIN CITIES    CLOUDY    73  63  70 E6        29.99F
ST PAUL        CLOUDY    73  64  73 VRB3      30.00F
CRYSTAL        SUNNY     74  60  61 NE6       29.99F
BLAINE         PTSUNNY   73  63  68 E6        30.01F
LAKEVILLE      CLOUDY    70  70 100 E5        29.99F
EDEN PRAIRIE   CLOUDY    73  64  73 E8        29.97F
SOUTH ST PAUL  CLOUDY    71  62  74 CALM      30.00F
LAKE ELMO      FAIR      72  63  73 E3        30.02F
$$
MNZ001>005-007-008-013>017-022>024-027-028-211600-
   Northwest Minnesota

CITY           SKY/WX    TMP DP  RH WIND       PRES   REMARKS
BEMIDJI        CLOUDY    61  54  77 S8        30.03F
HALLOCK        LGT RAIN  59  55  88 SE6       29.97F
ROSEAU         CLOUDY    61  54  77 S6        30.00F
WARROAD        CLOUDY    59  54  82 S3        30.01F
CROOKSTON      CLOUDY    64  54  68 S10       29.97F
FOSSTON        CLOUDY    64  54  68 SE7       30.01F
DETROIT LAKES  CLOUDY    63  54  72 SE14      30.01F
MOORHEAD       CLOUDY    63  57  82 E3        29.98F
PARK RAPIDS    LGT RAIN  61  56  83 SE12      30.05F
MAHNOMEN       CLOUDY    63  54  72 SE8       30.00F
$$
MNZ006-009>011-018-025>026-211600-
   North Central Minnesota

CITY           SKY/WX    TMP DP  RH WIND       PRES   REMARKS
BAUDETTE       CLOUDY    57  50  77 S3        30.03S
FLAG ISLAND    CLOUDY    64  48  55 CALM      29.99F
INTL FALLS     CLOUDY    63  52  67 SW5       30.04F
WASKISH        CLOUDY    63  54  72 CALM      30.04S
BIG FORK       CLOUDY    61  55  82 CALM      30.05S
LONGVILLE      CLOUDY    59  59 100 CALM      30.06F
GRAND RAPIDS   CLOUDY    62  57  83 S5        30.09R
CRANE LAKE     MOSUNNY   63  52  67 S7        30.06F
ORR            CLOUDY    63  52  67 CALM      30.03S
COOK           PTSUNNY   61  55  82 CALM      30.06R
WALKER         CLOUDY    61  56  84 S6        30.05F
$$
MNZ012-019>021-037-211600-
   Northeast Minnesota

CITY           SKY/WX    TMP DP  RH WIND       PRES   REMARKS
DULUTH         PTSUNNY   65  56  72 SE3       30.05F
ELY            CLOUDY    63  52  67 CALM      30.05F
HIBBING        CLOUDY    57  54  89 CALM      30.06S
EVELETH        MOSUNNY   60  56  88 CALM      30.06S
DULUTH HARBOR  CLOUDY    68  61  77 CALM      30.03F
GRAND MARAIS     N/A     65  59  81 SW7       30.02F
$$
MNZ029>031-032-039>041-046>048-054>057-064-211600-
   West Central Minnesota

CITY           SKY/WX    TMP DP  RH WIND       PRES   REMARKS
FERGUS FALLS   CLOUDY    63  57  82 E12       29.98F
WHEATON        CLOUDY    63  55  77 SE10G17   29.98F
MORRIS         CLOUDY    63  59  88 NE6       30.00F
ALEXANDRIA     CLOUDY    64  57  78 E9        30.05F
ELBOW LAKE     FAIR      63  58  83 SE14G22   29.99F
WADENA         RAIN      57  57 100 E7        30.03F
GLENWOOD       CLOUDY    64  59  82 NE7       30.03F
APPLETON       TSTM      63  57  82 SW8       30.04R
BENSON         CLOUDY    64  57  77 CALM      30.02S
ORTONVILLE     CLOUDY    63  57  82 MISG      30.01S
MADISON        TSTM      63  63 100 N10       30.02R
WILLMAR        LGT RAIN  66  63  88 E8        30.00S
$$
MNZ033>034-036-042>043-049>051-058-059-211600-
   Central Minnesota

CITY           SKY/WX    TMP DP  RH WIND       PRES   REMARKS
ST CLOUD       CLOUDY    68  59  73 E7        30.01F
SAUK CENTRE    FAIR      66  57  74 NE6       30.03F
PAYNESVILLE    CLOUDY    66  60  79 NE7       29.99F
AITKIN         CLOUDY    59  57  94 N5        30.07R
PINE RIVER     RAIN      57  54  88 MISG      30.11S
BRAINERD       CLOUDY    63  59  87 CALM      30.07F
STAPLES        LGT RAIN  59  57  94 CALM      30.07F
LONG PRAIRIE   FAIR      63  57  82 N6        30.05F
LITTLE FALLS   MOSUNNY   64  54  68 NE3       30.06F
LITCHFIELD     CLOUDY    70  64  83 E6        30.00F
BUFFALO        MOSUNNY   70  61  71 E3        30.01F
MAPLE LAKE     CLOUDY    71  64  78 E3        30.02S
HUTCHINSON     PTSUNNY   72  68  87 E6        30.00F
$$
MNZ037-044-045-052-053-211600-
   East Central Minnesota

CITY           SKY/WX    TMP DP  RH WIND       PRES   REMARKS
PRINCETON      PTSUNNY   70  59  68 E3        30.02F
MORA           MOSUNNY   64  55  72 CALM      30.05F
CAMBRIDGE      CLOUDY    73  57  56 E3        30.03S
RUSH CITY      SUNNY     69  58  67 E3        30.03F HAZE
MOOSE LAKE     PTSUNNY   61  59  94 CALM      30.03F
HINCKLEY       FAIR      66  61  82 CALM      30.05S
CLOQUET        CLOUDY    68  52  56 SE5       30.05S
MCGREGOR       CLOUDY    63  55  77 NW5       30.08R
$$
MNZ071>073-080-081-089-090-097-098-211600-
   Southwest Minnesota

CITY           SKY/WX    TMP DP  RH WIND       PRES   REMARKS
MONTEVIDEO     CLOUDY    63  63 100 N6        30.00R
GRANITE FALLS  CLOUDY    71  67  88 CALM      30.00R
CANBY          CLOUDY    61  59  94 W7        30.04R THUNDER
MARSHALL       CLOUDY    65  64  97 NW6       30.01R FOG
REDWOOD FALLS  MOSUNNY   73  66  78 SE7       29.96F
OLIVIA         CLOUDY    72  68  88 E3        29.97F
PIPESTONE      PTSUNNY   70  66  88 S6        30.00R
WINDOM         SUNNY     73  64  73 S9        29.99F
WORTHINGTON    CLOUDY    68  66  93 SW9       30.01R
JACKSON        PTSUNNY   70  64  83 SW6       30.00S
TRACY          CLOUDY    67  67 100 CALM      30.00R FOG
SLAYTON        CLOUDY    68  63  82 S5        30.00R
$$
MNZ065>067-074>077-082>085-091>093-211600-
   South Central Minnesota

CITY           SKY/WX    TMP DP  RH WIND       PRES   REMARKS
MANKATO        SUNNY     73  66  78 VRB3      29.99F
NEW ULM        SUNNY     73  66  78 SE10      29.97F
ST JAMES       SUNNY     73  66  78 SE7       29.99F
FAIRMONT       SUNNY     74  64  71 S8        29.99F
GLENCOE        CLOUDY    75  70  86 SE5       29.98F
FARIBAULT      CLOUDY    72  66  83 NE5       29.99F
OWATONNA       CLOUDY    73  68  83 E5        29.99F
WASECA         SUNNY     73  64  73 CALM      30.00F
ALBERT LEA     SUNNY     79  66  65 E8        30.00F
$$
MNZ078>079-086>088-094>096-211600-
   Southeast Minnesota

CITY           SKY/WX    TMP DP  RH WIND       PRES   REMARKS
ROCHESTER      SUNNY     73  68  84 NE7       30.03F
RED WING       CLOUDY    68  64  88 E3        30.00F
STANTON        PTSUNNY   71  67  87 E3        29.99F
DODGE CENTER   CLOUDY    73  66  78 E7        30.00F
WINONA         MOSUNNY   73  68  83 E3        30.03F
AUSTIN         MOSUNNY   73  66  78 E9        30.01F
PRESTON        SUNNY     72  66  82 NE6       30.05F
$$
ABBREVIATIONS USED IN REMARKS
   TC - TEMPERATURES IN CELSIUS
  WCI - WIND CHILL INDEX
   HX - HEAT INDEX
  VSB - VISIBILITY
$$




USA.gov is the U.S. government's official web portal to all federal, state and local government web resources and services.